Location: Great Snoring
(52.8667°N, 0.8833°E)
Time: 20:56:10
(UTC+00:00)

BlueWalker 3 - Visible Passes

Search period start: 19 January 2026 00:00
Search period end: 29 January 2026 00:00
Orbit: 451 x 463 km, 53.2° (Epoch: 19 January)

Date Brightness Start Highest point End Pass type
(mag) Time Alt. Az. Time Alt. Az. Time Alt. Az.
21 Jan 4.0 18:58:36 10° SSW 18:59:45 17° S 18:59:45 17° S visible
22 Jan 3.3 18:23:31 10° SSW 18:26:02 22° SSE 18:26:02 22° SSE visible
23 Jan 3.5 17:48:28 10° S 17:51:01 19° SE 17:52:15 16° ESE visible
23 Jan 3.9 19:24:29 10° WSW 19:26:00 23° SW 19:26:00 23° SW visible
24 Jan 3.8 17:13:32 10° S 17:15:42 15° SE 17:17:52 10° E visible
24 Jan 2.3 18:49:07 10° SW 18:52:08 49° S 18:52:08 49° S visible
25 Jan 2.2 18:13:46 10° SW 18:17:12 46° SSE 18:18:12 35° ESE visible
25 Jan 4.6 19:51:01 10° W 19:51:56 17° W 19:51:56 17° W visible
26 Jan 2.5 17:38:26 10° SW 17:41:47 39° SSE 17:44:14 16° E visible
26 Jan 3.0 19:15:32 10° W 19:17:58 41° W 19:17:58 41° W visible
27 Jan 1.5 18:40:03 10° WSW 18:43:38 86° SSE 18:43:56 74° E visible
27 Jan 5.2 20:17:36 10° W 20:17:41 11° W 20:17:41 11° W visible
28 Jan 1.7 18:04:35 10° WSW 18:08:09 80° SSE 18:09:53 28° E visible
28 Jan 4.1 19:42:05 10° W 19:43:37 24° W 19:43:37 24° W visible
